RH
15 9 9 9 12 14 13 15 14 15 15 14 16 14 12 10 7 8 10 13 19 18 17 20 20 26 34 31 27 25 22 22 22 20 20 24 27 27 27 24 21 22 24 27 29 33 41 44 44 45 48 52 55 54 50 43 37 33 30 28 26 24 23 22 21 21 20 20 20 21 22 23 26 28 29 32 37 42 45 50 53 56 63 66 67 68
13 7 9 11 13 12 11 11 8 8 10 10 12 10 7 9 8 9 11 15 21 23 19 20 23 30 34 32 27 23 22 22 23 23 24 28 31 29 26 22 22 26 30 31 33 36 39 43 45 48 50 51 49 42 34 29 26 26 25 24 23 22 22 21 21 21 21 21 21 20 21 22 25 26 28 30 32 36 43 50 55 61 72 76 74 76
11 9 11 12 11 10 9 8 7 7 8 8 10 8 8 10 9 9 11 14 20 20 18 20 26 30 31 28 25 25 24 24 26 25 25 27 27 27 24 20 21 24 24 25 29 36 41 45 47 46 44 39 34 29 26 26 25 25 24 24 25 26 27 28 29 29 28 29 28 26 24 23 25 27 29 31 31 34 39 49 58 67 80 85 82 82
12 13 12 10 10 9 7 8 7 7 7 8 9 9 10 10 12 13 11 12 16 18 21 22 22 24 23 22 26 29 27 26 29 26 23 25 25 24 23 20 21 21 20 19 21 29 36 39 40 37 34 30 28 27 26 26 25 24 25 25 26 28 30 32 32 34 36 37 37 34 31 28 29 31 34 36 36 36 40 49 60 69 83 90 86 85
15 14 11 10 10 8 8 8 7 7 8 9 10 10 11 11 13 17 15 11 11 17 27 24 18 16 13 20 29 28 27 29 29 27 25 26 24 23 23 22 24 23 21 19 17 20 23 25 26 26 26 26 24 24 23 23 23 23 23 24 25 26 27 30 33 38 43 44 44 42 38 35 34 35 38 41 43 43 43 51 61 70 81 87 86 88
13 11 9 9 9 8 9 8 7 9 9 8 10 10 11 11 11 15 15 11 10 16 27 32 33 23 8 17 32 26 26 31 29 29 27 26 25 24 25 24 24 24 23 22 20 20 21 21 21 21 22 23 24 26 26 26 26 25 26 27 28 30 32 35 40 45 49 51 51 50 47 44 41 39 40 41 44 45 46 52 61 69 76 84 89 93
10 9 9 8 8 9 7 7 9 10 10 9 10 9 9 11 11 15 13 11 14 18 28 36 38 31 10 12 29 27 27 31 29 29 27 25 26 25 25 25 24 25 24 24 24 24 23 22 21 20 19 19 20 23 25 27 29 30 32 35 37 40 42 45 47 48 51 53 55 56 55 53 48 44 41 41 41 41 44 49 57 65 74 84 92 96
8 8 8 7 7 7 5 8 8 9 11 10 8 7 7 9 9 14 13 12 17 18 30 38 31 34 26 14 25 30 29 31 27 27 26 24 26 25 25 24 23 25 25 25 27 26 25 25 26 25 21 17 15 16 18 22 27 32 37 41 43 44 44 44 44 44 46 48 51 53 56 57 55 49 44 42 40 39 41 44 51 61 70 81 92 98
7 6 7 6 5 7 7 9 8 10 11 8 8 7 6 8 9 13 14 13 20 20 29 36 27 35 33 14 21 31 27 29 26 25 27 25 27 27 25 25 25 27 27 27 28 28 28 29 32 32 25 18 16 15 18 23 31 38 41 43 42 42 41 41 41 42 44 46 47 48 51 53 55 55 53 49 43 41 42 43 48 59 67 79 93 100
6 5 6 5 4 7 8 9 8 9 10 8 7 4 3 9 7 11 13 11 23 28 27 31 27 37 36 12 16 29 27 28 26 26 28 27 28 28 27 29 29 29 30 30 31 31 31 33 35 32 23 17 16 18 24 32 38 42 43 43 43 42 42 41 42 43 45 46 46 47 48 50 53 56 57 54 49 46 48 48 51 59 68 79 91 99
7 4 4 4 5 7 7 9 8 8 11 8 6 4 4 9 7 12 14 9 23 30 25 27 23 36 47 22 13 26 28 28 27 28 30 28 28 29 29 31 31 32 32 33 34 34 34 36 36 30 18 13 18 25 33 39 42 44 45 45 45 45 46 46 46 47 48 50 50 48 48 48 52 55 57 58 55 52 53 56 59 63 69 76 85 95
10 5 3 4 4 5 5 8 7 7 10 8 8 7 3 8 10 13 14 11 23 29 22 23 21 35 52 29 12 22 25 27 29 30 33 31 30 30 31 32 33 35 35 35 36 35 34 35 35 29 17 15 25 35 42 47 48 48 48 48 48 49 49 50 51 52 54 56 57 56 54 52 52 54 57 59 60 59 58 60 66 69 71 74 81 92
9 6 3 3 3 4 5 6 5 6 9 9 11 10 14 28 31 31 36 32 31 27 16 22 29 35 38 20 11 18 19 23 29 32 35 34 31 32 33 35 36 37 38 38 36 34 34 36 37 33 23 21 32 43 50 53 53 52 52 51 52 53 53 55 56 58 59 61 62 62 62 60 58 56 56 57 60 64 64 66 69 72 75 77 80 88
7 8 4 3 4 4 5 8 9 11 13 15 17 19 31 48 53 58 64 52 37 27 16 23 37 37 25 13 11 15 15 19 26 34 37 33 32 35 36 38 39 39 39 36 34 35 38 42 44 43 35 28 33 46 53 56 56 56 56 56 57 58 60 62 63 64 66 66 67 66 66 65 64 62 59 58 58 61 64 68 72 75 78 81 83 88
11 12 5 3 5 4 7 12 13 16 19 19 22 28 33 39 44 53 59 49 40 38 29 25 32 31 18 10 11 12 12 15 20 30 35 34 36 39 39 41 41 39 38 38 41 45 49 53 54 52 46 39 39 47 54 57 59 59 59 60 61 63 64 66 68 70 70 71 71 70 69 68 68 67 65 62 60 59 60 65 69 73 77 82 86 90
10 9 5 4 5 5 8 10 12 17 20 19 22 29 32 33 35 43 48 40 42 57 55 35 25 20 12 9 9 9 10 10 14 21 29 35 35 34 37 41 42 46 52 57 60 59 61 66 65 58 54 51 52 54 55 57 58 58 60 61 63 65 66 68 71 72 73 74 74 74 73 73 72 71 69 67 64 60 59 60 64 68 73 80 89 94
11 6 4 5 5 4 7 9 11 16 16 17 23 29 32 33 39 48 47 40 49 67 58 34 23 20 16 11 5 6 10 10 14 20 27 33 31 30 37 43 54 66 70 70 69 69 72 75 73 69 67 67 69 69 66 63 60 60 61 63 64 66 68 70 72 73 73 69 66 66 67 69 71 73 73 69 66 60 55 57 61 64 69 76 88 98
16 10 3 5 5 4 6 7 10 12 12 17 24 29 32 34 42 51 51 54 66 69 49 29 27 29 28 19 9 10 14 14 20 27 32 35 36 40 45 50 64 74 74 73 73 75 78 78 77 76 76 77 78 77 76 73 69 66 66 66 66 67 69 71 72 73 71 65 61 60 58 56 57 65 72 71 66 58 50 53 57 57 61 69 79 91
17 15 6 4 4 4 6 6 8 9 10 14 18 23 31 35 39 44 48 54 60 65 60 43 32 33 31 21 14 18 24 29 36 39 41 45 47 52 52 51 58 65 70 76 78 79 81 81 81 81 81 82 81 80 80 80 77 75 74 72 69 69 71 74 75 74 70 66 65 64 62 57 51 58 70 71 68 60 49 51 57 53 47 49 59 70
16 20 13 4 3 4 4 5 8 8 7 9 11 19 30 36 38 39 43 46 49 67 79 62 45 39 29 21 23 32 41 47 49 46 48 54 57 60 61 59 62 68 75 81 82 84 85 85 86 86 85 86 84 83 82 81 81 80 78 76 72 70 72 74 76 75 71 70 71 68 67 60 52 60 75 75 72 68 58 54 59 60 50 38 35 39
12 19 17 6 3 5 4 5 9 9 7 8 9 17 27 34 37 38 41 41 45 67 84 79 66 43 24 29 40 42 44 48 53 57 60 65 70 74 76 78 81 84 87 89 90 91 92 92 93 93 93 94 92 91 89 87 86 83 81 81 80 79 79 79 79 76 72 70 69 65 59 52 50 63 78 79 77 75 69 63 60 60 61 53 39 25
10 15 17 8 4 6 5 5 8 9 9 11 13 17 22 30 38 46 50 42 39 54 65 72 70 42 27 42 47 41 46 54 65 70 69 73 82 89 92 96 97 96 96 96 94 94 94 96 97 96 93 91 89 86 85 86 88 89 89 88 85 83 80 76 71 66 61 56 53 50 48 51 58 68 76 79 82 80 76 74 67 58 56 60 57 42
9 13 15 10 6 7 8 8 10 11 10 11 13 15 20 31 40 50 56 46 42 50 50 58 66 45 36 48 45 41 54 67 76 78 79 85 92 96 98 98 98 98 95 91 86 83 81 80 81 81 77 72 68 61 57 56 58 62 63 60 58 60 61 60 59 58 57 53 49 48 52 61 68 72 75 77 81 82 80 78 77 68 57 54 59 57
10 13 14 10 7 8 8 9 9 11 13 13 14 17 23 34 40 48 53 50 54 57 52 65 73 48 36 46 44 43 53 63 73 83 92 97 95 95 95 91 88 85 80 76 72 68 64 60 58 57 52 48 43 37 33 31 30 30 29 27 29 35 39 42 44 46 51 56 58 58 64 74 77 75 77 79 79 81 82 81 79 75 65 57 56 58
13 14 16 18 19 17 15 14 12 14 17 16 15 19 26 33 41 50 54 57 63 57 51 70 75 47 37 46 46 50 60 67 78 91 99 99 94 92 89 81 74 68 64 62 58 51 44 38 35 32 29 27 25 22 21 20 19 19 17 17 18 21 25 30 32 34 38 46 53 57 65 78 86 85 83 84 84 83 82 82 81 79 73 63 57 54
12 12 16 23 27 29 27 23 21 21 21 17 14 16 24 33 41 49 58 68 71 58 51 64 66 50 49 57 62 72 83 87 93 97 95 91 87 81 73 66 62 61 62 61 53 42 30 21 18 16 18 21 22 23 22 20 19 18 17 18 18 21 26 30 32 32 33 37 42 46 52 62 75 86 88 88 89 88 82 77 77 78 75 66 55 48
10 9 13 19 22 24 24 21 22 26 27 23 18 17 24 37 47 53 64 74 72 67 63 62 66 74 80 84 88 94 97 94 89 85 79 75 69 62 56 54 56 62 70 70 58 39 23 15 14 15 20 24 26 29 30 29 27 25 24 23 23 27 30 31 31 31 32 34 36 38 42 46 53 63 72 75 77 80 79 73 69 72 72 65 55 48
11 10 12 18 19 17 18 19 19 24 28 26 27 33 36 42 47 51 62 74 78 83 84 77 83 96 99 98 99 96 90 82 74 68 66 63 58 53 52 53 61 74 86 81 59 33 19 17 15 17 24 29 32 34 34 33 30 28 28 27 26 27 26 26 26 26 26 27 29 32 34 38 43 46 49 52 54 59 64 64 64 70 74 73 66 58
11 12 13 16 17 15 15 18 19 24 29 28 35 50 52 50 54 55 62 78 90 96 97 95 98 102 100 98 94 85 76 71 66 63 63 65 61 56 56 60 70 83 84 67 41 23 20 21 20 24 31 35 36 37 37 37 36 35 33 30 28 28 28 26 24 22 23 24 24 25 26 28 33 37 41 43 44 46 50 53 59 67 71 73 74 69
13 14 14 16 17 15 14 18 21 27 29 28 42 62 62 57 63 65 68 81 92 96 99 100 100 98 95 92 83 73 67 64 63 64 66 63 55 48 50 55 61 63 53 36 24 22 26 29 30 36 45 48 46 44 45 45 45 48 50 49 45 41 36 35 32 28 27 26 25 25 26 29 29 29 32 38 42 47 50 53 59 65 66 64 68 72
14 15 15 18 19 16 14 18 22 27 31 34 46 55 50 48 56 65 75 84 90 95 99 100 98 93 86 80 72 64 63 63 65 65 58 44 34 32 37 39 40 37 29 25 27 29 33 37 37 39 45 50 49 47 47 48 48 51 57 64 67 63 55 49 44 36 33 36 38 34 33 40 43 37 29 29 34 39 46 52 57 61 63 62 63 70
16 18 16 20 24 19 15 18 23 27 28 32 41 46 51 63 75 81 90 96 97 100 100 99 98 91 80 75 72 66 66 70 70 59 40 26 24 31 37 40 41 41 40 42 44 44 44 45 45 45 45 46 47 47 47 48 49 49 52 56 59 64 68 66 58 52 49 50 49 45 45 54 62 57 43 34 29 25 30 41 48 54 60 63 62 65
18 20 19 26 33 25 16 19 26 28 28 36 57 75 84 89 90 87 90 95 98 100 101 100 96 85 73 70 69 63 61 64 61 43 26 24 32 41 47 51 54 56 57 58 59 59 56 53 53 55 54 53 54 55 55 57 60 60 60 58 54 54 58 59 56 54 52 50 48 47 49 56 66 66 56 45 34 28 31 38 43 48 54 63 68 66
20 21 23 33 40 32 21 25 32 33 36 52 77 96 100 97 97 95 90 88 93 98 101 101 92 74 60 53 49 44 41 42 37 26 21 30 45 55 58 59 62 63 63 63 65 65 63 61 60 59 60 61 60 61 63 66 69 71 69 67 63 58 55 56 57 52 47 49 51 47 43 50 62 66 59 50 44 44 50 54 56 57 56 67 83 83
21 24 28 34 42 38 31 38 47 44 45 65 86 93 89 84 86 88 79 77 88 98 100 93 76 58 47 38 30 26 27 30 31 29 30 38 52 64 68 65 65 69 72 75 77 76 75 75 72 67 67 68 68 69 72 73 76 78 74 69 68 66 62 62 62 57 53 54 52 46 45 53 61 57 51 52 55 59 66 70 72 73 74 82 96 100
24 29 32 36 44 44 39 48 57 50 47 63 78 79 76 74 80 86 82 79 91 101 94 74 53 42 36 28 23 27 37 47 48 41 36 42 52 61 67 68 70 77 84 88 90 93 93 91 88 85 83 83 82 81 80 81 83 82 76 72 72 72 68 66 66 64 58 51 46 45 50 54 55 53 53 60 64 67 74 82 86 85 88 94 99 101
27 30 34 42 48 48 50 59 63 56 57 69 78 85 90 93 96 100 95 89 92 92 72 48 38 38 34 28 34 46 55 60 55 40 33 39 47 52 57 63 69 74 80 85 91 99 101 99 96 95 93 91 89 87 87 88 86 81 76 74 73 72 68 67 69 66 58 52 53 59 63 64 65 68 69 68 67 66 72 86 96 92 88 93 98 100
27 31 41 51 54 56 66 77 78 74 76 85 93 98 101 99 96 93 87 81 75 63 46 40 48 49 41 41 49 54 57 61 53 37 33 37 38 42 49 54 59 65 72 82 94 101 102 101 98 94 93 93 89 88 91 90 83 77 75 75 74 72 68 65 66 67 63 62 69 77 80 79 79 80 77 70 65 68 78 92 101 96 89 88 90 91
28 35 43 53 61 68 79 90 91 83 83 94 101 99 99 99 90 80 75 68 57 48 48 56 60 51 43 47 50 49 63 82 67 37 30 35 35 40 48 51 54 60 67 81 97 103 102 101 96 90 90 91 89 88 90 90 84 77 75 77 78 75 71 68 70 76 77 75 80 88 89 86 83 82 81 76 71 76 92 102 100 97 93 85 79 81
35 46 54 63 73 81 89 96 92 84 87 98 99 96 98 92 77 74 80 75 65 62 61 56 51 44 41 45 47 47 67 91 79 44 32 37 37 37 43 50 58 65 72 86 99 102 101 99 95 91 91 92 92 91 92 92 86 81 83 85 83 78 75 73 73 78 79 78 83 88 87 86 87 86 86 85 83 89 99 103 99 97 97 90 86 89
40 50 59 68 76 84 95 100 94 89 94 97 95 95 92 77 70 82 90 81 72 68 57 44 43 45 42 45 54 58 58 64 62 49 39 38 39 41 46 56 69 79 88 97 101 100 100 99 97 95 95 97 97 94 95 95 90 91 95 90 82 80 79 74 71 71 71 71 75 78 81 86 92 93 89 84 87 95 99 99 99 100 99 97 98 99
51 54 61 73 82 89 97 100 94 89 91 97 98 90 76 71 83 91 79 64 61 56 45 39 41 47 50 54 61 63 54 46 45 44 41 44 55 65 71 78 87 92 97 101 100 100 101 100 100 98 95 99 100 97 97 98 97 100 99 87 79 81 79 73 68 65 65 68 71 74 78 85 92 95 89 83 87 97 100 97 99 101 100 100 101 100
63 68 80 91 94 94 95 97 96 93 95 100 95 78 68 77 88 79 61 50 46 40 39 41 43 48 57 59 56 53 50 47 47 51 57 67 80 90 93 96 99 99 100 101 100 100 101 101 101 99 96 99 101 99 99 101 101 100 92 82 81 84 79 71 66 63 64 66 68 70 74 81 89 92 88 87 94 100 100 97 98 100 100 100 100 100
63 81 96 99 98 99 100 99 98 100 102 95 78 65 66 68 59 48 44 40 34 33 41 45 43 46 55 64 68 68 67 70 75 79 84 90 95 98 99 100 101 101 101 100 98 99 101 102 101 99 97 99 100 99 99 101 102 101 93 87 89 91 81 69 62 62 61 59 60 65 70 78 86 86 84 91 99 101 100 99 99 100 100 100 100 100
71 89 95 95 97 98 95 95 97 98 92 75 55 47 48 40 29 29 33 33 32 37 43 48 51 58 68 81 91 93 91 94 97 98 98 99 99 100 100 100 99 100 100 99 99 100 101 101 101 99 98 99 100 100 100 100 102 102 98 93 94 94 84 70 61 58 56 53 54 58 64 73 78 76 81 93 100 101 100 100 99 100 100 100 100 100
75 79 79 89 97 90 83 87 90 81 66 50 41 36 30 24 24 29 30 31 34 38 45 59 73 83 91 98 102 101 100 100 101 100 100 101 100 99 100 99 97 98 100 100 100 101 100 100 100 100 99 99 99 100 101 100 98 97 97 97 98 94 84 74 64 56 52 52 52 52 58 68 71 73 83 92 95 98 101 100 100 100 100 99 99 98
58 63 69 84 95 92 86 83 76 63 46 34 30 28 21 19 24 28 28 28 31 38 56 77 91 98 101 102 101 101 101 100 100 100 100 100 99 99 100 100 99 99 100 100 100 101 101 100 101 100 100 100 99 100 101 100 96 91 92 98 101 96 83 74 66 56 51 51 48 47 55 62 65 74 85 88 90 98 101 99 100 101 99 99 97 96
67 69 75 84 93 96 90 74 59 47 31 17 17 20 17 21 27 27 24 26 35 52 70 84 94 101 102 100 100 101 101 100 100 100 100 100 100 100 100 100 100 100 100 101 101 100 100 100 101 100 100 100 100 100 100 101 96 88 87 95 102 97 84 74 67 59 52 48 44 44 51 57 63 76 84 83 89 100 101 98 100 100 100 101 99 96
90 88 91 95 95 91 76 54 40 32 18 10 17 23 21 27 32 28 25 36 53 70 79 81 86 95 99 101 102 101 100 101 100 100 100 100 100 100 100 100 100 100 100 100 100 100 101 100 100 100 100 100 101 100 100 100 92 82 83 94 103 98 83 71 66 61 52 45 40 42 47 51 62 79 87 83 88 99 101 98 100 99 99 101 101 99
94 97 102 95 79 63 46 32 33 40 36 27 29 30 27 31 35 34 41 57 71 80 85 85 84 84 88 94 99 101 101 100 100 100 100 100 100 100 100 100 100 100 100 100 100 100 100 100 100 101 100 99 99 98 99 100 92 81 80 91 102 100 85 71 65 59 50 43 42 47 52 52 57 75 85 80 84 97 101 99 101 100 99 101 101 98
98 103 97 70 42 30 24 20 30 45 45 35 32 34 31 32 40 52 67 80 86 89 92 93 89 86 84 85 92 100 103 100 100 101 100 99 101 101 100 101 102 101 101 102 101 100 100 100 100 101 99 99 99 97 97 100 98 89 83 88 99 102 90 78 71 62 52 49 51 58 60 50 47 66 76 69 75 96 102 98 100 99 96 100 101 92
Wind_Speed
11 14 18 21 19 19 21 20 20 20 20 20 20 21 24 27 29 26 24 26 29 30 26 24 23 17 10 9 9 13 17 16 17 20 20 18 16 16 16 17 17 17 16 16 15 13 12 11 10 12 14 16 17 19 22 23 24 25 26 27 28 28 30 31 32 34 36 38 39 40 41 41 40 40 40 39 38 38 37 37 37 37 37 37 37 37
9 17 24 23 20 21 22 20 21 22 21 21 21 24 25 27 29 25 23 25 25 26 24 23 19 12 7 7 9 15 19 20 20 19 17 16 14 15 16 15 17 18 17 17 16 13 13 13 13 13 15 17 19 21 23 24 25 26 27 28 29 30 31 32 33 35 37 38 39 41 41 41 41 41 40 39 39 38 38 37 37 36 35 36 36 36
11 22 25 21 21 23 22 21 22 22 21 21 22 26 26 26 29 26 24 22 19 20 21 20 15 10 7 7 10 18 24 25 21 17 16 15 15 15 14 13 14 17 17 17 16 14 13 12 12 13 15 18 21 23 25 26 28 28 30 30 31 32 32 33 35 37 38 39 40 41 42 42 42 41 41 40 40 39 38 37 36 35 34 35 35 35
16 23 23 20 21 22 22 22 22 21 20 21 23 26 26 26 26 26 26 22 17 17 18 20 13 8 11 12 11 19 25 23 19 18 17 16 17 15 13 12 13 17 19 18 17 15 15 14 15 18 21 24 26 28 30 31 32 32 33 33 34 35 35 36 38 39 40 41 42 43 43 42 41 41 40 39 39 39 38 38 37 35 34 34 35 34
18 20 21 20 21 22 22 21 22 22 21 21 23 25 26 25 22 22 24 24 21 15 14 21 15 9 18 17 12 18 20 17 17 18 16 17 17 14 13 15 16 20 23 21 19 16 16 18 21 24 27 29 31 33 35 36 37 37 38 38 38 39 40 40 41 41 41 42 43 44 44 44 43 41 40 39 38 37 38 38 38 37 36 36 34 34
18 19 19 19 20 20 20 21 23 24 23 23 23 24 25 24 22 19 19 24 24 16 14 19 13 13 24 20 13 17 15 14 16 16 15 16 17 16 18 21 22 24 26 26 26 25 24 25 27 30 32 32 32 33 34 35 36 38 38 39 39 39 39 39 39 39 40 42 43 44 44 44 44 44 43 41 39 38 38 38 38 38 37 36 34 33
18 18 18 19 19 18 20 22 24 24 24 25 24 26 25 22 21 17 18 22 20 16 14 13 10 14 25 22 13 14 12 14 16 15 17 18 19 21 23 25 28 29 30 30 33 36 36 36 35 36 36 35 34 34 34 35 34 34 33 33 33 32 32 32 33 33 35 37 38 39 41 41 42 42 41 41 41 41 40 38 39 39 37 35 34 33
18 17 16 19 18 19 22 23 24 23 23 24 25 27 26 21 19 15 17 21 18 15 11 8 13 14 18 19 12 11 12 14 17 16 18 20 21 24 26 29 31 32 34 35 37 40 41 41 39 40 40 37 35 34 34 33 32 31 30 29 28 26 26 26 27 28 29 31 33 34 36 37 38 38 38 38 39 40 39 39 38 38 37 35 33 32
18 18 18 21 21 21 23 22 22 21 21 24 25 28 26 20 18 13 16 22 18 14 7 7 15 11 15 20 13 12 15 14 18 19 18 21 22 25 28 31 32 32 34 36 38 41 42 41 40 42 42 38 33 30 29 28 28 28 28 27 26 25 25 25 25 26 26 28 30 31 32 33 34 35 36 37 38 37 37 37 37 37 36 35 33 32
19 21 21 23 23 21 20 19 20 20 21 24 25 28 25 19 18 13 16 24 16 9 4 6 14 9 14 22 15 14 17 17 23 21 19 22 23 26 30 30 31 32 33 36 37 39 40 40 41 43 42 35 30 27 26 27 27 27 27 26 26 25 25 25 25 25 25 26 28 29 30 31 31 32 34 36 36 35 34 34 35 35 35 34 33 32
19 22 22 23 23 21 18 18 20 19 20 23 25 30 26 20 20 12 16 23 11 4 4 7 16 12 9 16 17 17 18 20 25 22 19 23 24 28 29 29 31 32 34 36 37 39 40 42 43 43 39 32 28 27 26 26 26 26 27 26 26 26 26 26 26 26 26 27 28 28 29 29 29 30 31 32 33 33 32 33 34 34 35 35 34 33
14 21 24 23 23 23 20 18 19 19 20 21 24 29 27 22 21 13 17 19 5 4 8 11 24 18 8 13 20 18 19 23 25 22 20 24 27 30 30 30 32 33 35 37 39 43 44 45 45 43 39 33 29 29 27 27 28 27 28 28 28 28 28 29 29 29 29 29 29 29 29 30 29 30 30 30 31 31 31 32 33 34 36 36 36 35
11 17 23 23 23 24 22 20 20 19 19 20 24 28 22 15 14 9 11 10 2 11 17 20 26 17 10 16 24 20 19 22 21 19 20 27 31 31 30 31 34 35 37 41 45 48 47 46 45 44 42 35 30 30 30 30 30 30 30 31 31 31 32 32 32 33 33 33 33 33 32 32 31 31 31 30 30 29 30 31 32 34 36 37 38 37
15 15 22 23 22 22 21 21 21 21 20 18 23 24 14 6 5 4 5 3 6 19 30 30 22 11 12 21 25 19 18 22 18 14 20 29 30 27 30 33 37 40 43 47 49 48 46 44 43 44 43 37 32 30 31 32 33 33 34 34 35 35 35 35 36 36 36 36 36 36 36 35 35 34 33 32 31 30 30 30 31 33 35 37 38 38
17 12 18 23 22 21 19 16 17 21 17 15 21 18 10 7 3 3 4 3 7 21 34 30 13 6 17 27 24 19 22 25 22 18 21 26 27 28 33 37 41 46 47 47 45 42 41 40 40 43 43 40 35 32 32 33 34 36 37 38 39 39 39 38 38 38 39 39 39 39 39 38 38 37 37 36 34 33 31 30 30 31 32 34 36 38
17 12 15 21 22 20 18 15 17 19 14 16 21 14 12 14 6 8 10 12 13 14 20 19 12 16 28 31 22 18 22 25 24 23 22 24 30 34 37 42 45 43 38 35 34 34 34 33 36 42 45 44 40 36 35 35 37 39 40 41 41 41 41 40 39 39 40 41 42 42 42 41 41 40 39 39 37 36 35 32 31 30 31 33 34 36
17 16 15 19 23 22 17 15 17 17 15 18 19 13 15 17 10 9 12 15 11 6 10 16 19 26 30 29 25 19 22 27 26 23 21 23 33 36 37 38 34 28 25 25 28 30 29 29 32 38 41 43 42 39 37 36 38 40 42 43 43 42 42 41 40 40 39 40 42 43 44 45 44 43 41 40 39 38 37 35 32 31 31 32 33 34
18 19 19 20 25 25 18 16 16 16 18 18 17 16 17 13 8 6 7 8 6 2 9 19 24 25 24 25 30 29 28 32 30 23 22 28 35 35 34 29 21 20 24 26 27 27 27 28 30 33 35 37 39 38 37 37 38 40 41 43 43 43 43 42 41 40 39 39 42 45 47 49 49 47 45 43 42 40 38 36 34 32 31 31 32 33
19 20 21 22 25 26 20 18 18 17 19 19 19 20 15 9 7 7 5 5 5 2 6 20 27 26 26 27 34 37 35 34 28 22 25 32 36 36 35 33 28 28 28 27 28 28 28 29 30 31 33 33 34 34 35 35 36 38 39 40 40 40 39 39 40 41 41 42 44 46 48 50 52 50 47 46 44 42 39 35 34 32 31 31 31 32
19 15 18 23 26 25 21 20 20 20 22 23 23 21 15 11 11 14 12 8 7 3 3 14 18 21 29 33 35 34 30 26 23 24 29 33 34 33 33 33 31 29 29 28 29 29 29 29 29 29 30 31 32 33 34 35 35 36 37 38 38 38 38 38 40 44 46 47 49 48 48 52 53 50 47 45 45 43 40 37 35 34 32 32 32 32
21 15 18 27 30 26 22 20 18 20 24 27 27 22 18 16 15 17 18 15 11 5 2 4 7 24 41 37 28 24 20 20 25 28 31 30 29 26 24 26 27 28 30 31 32 33 33 32 31 30 30 31 33 34 35 35 35 35 35 35 36 38 39 40 42 47 51 54 56 56 55 55 53 49 46 45 44 43 42 40 38 36 35 33 32 31
23 19 21 30 34 29 25 22 19 21 26 28 28 25 23 22 19 14 12 17 16 11 10 6 8 32 46 31 23 24 21 25 29 30 32 30 26 24 23 26 30 33 35 37 38 40 40 40 39 38 39 42 45 46 46 45 43 42 41 42 44 45 46 48 50 54 56 57 58 58 56 52 49 48 47 45 43 42 42 42 40 39 38 36 34 32
25 21 23 31 34 29 25 24 24 25 29 31 29 29 29 25 21 13 10 19 23 21 23 14 10 30 37 22 23 27 24 29 33 33 34 31 28 30 31 34 37 40 43 45 48 50 51 52 51 51 53 56 60 64 66 65 64 62 61 60 61 60 57 57 56 56 56 55 54 53 52 48 47 48 48 46 44 42 41 42 42 41 39 37 36 34
24 20 25 34 37 35 32 31 30 29 32 35 33 33 31 26 23 20 19 24 25 28 28 11 6 28 34 24 28 33 34 38 37 35 34 33 35 39 41 45 49 53 56 58 61 63 64 65 65 65 67 68 70 72 74 74 73 72 70 67 64 61 59 58 56 54 54 52 50 49 49 49 48 49 48 47 46 44 42 42 42 42 41 38 37 35
22 19 23 26 26 31 34 32 35 37 36 37 38 37 34 32 30 28 27 23 20 29 31 11 10 30 37 33 39 42 42 43 39 37 37 38 45 49 53 59 63 66 67 67 69 71 72 74 74 74 73 71 69 67 66 67 66 65 63 60 58 57 55 54 52 51 51 49 47 46 47 49 49 50 50 49 48 45 44 43 42 41 40 39 38 36
24 23 23 15 8 12 17 21 32 39 38 39 41 41 39 38 36 33 30 22 17 26 34 23 24 36 40 39 42 41 40 42 42 42 44 46 52 59 65 69 69 68 66 65 68 70 71 73 72 69 65 60 57 54 53 52 51 50 49 48 48 48 48 47 46 46 47 46 45 44 43 45 47 49 50 49 49 47 46 45 44 42 40 38 37 36
27 29 26 18 15 19 23 29 34 34 33 36 40 43 42 38 33 31 29 24 22 29 36 34 34 36 34 33 35 37 41 48 52 53 57 61 64 68 73 73 69 65 60 61 65 67 67 68 66 62 56 51 48 45 43 42 41 40 39 40 41 41 40 41 41 41 41 42 42 41 40 41 43 46 47 47 46 46 45 44 43 42 41 38 36 35
30 31 29 27 29 32 35 37 34 28 30 36 40 42 39 30 26 27 26 25 25 24 25 29 32 30 28 31 36 44 52 58 61 64 67 69 70 72 72 69 65 59 56 60 66 67 65 64 63 60 55 50 46 43 41 41 39 37 36 37 37 38 38 39 40 40 40 40 41 40 39 39 40 42 43 44 44 44 44 44 43 44 43 40 38 37
30 30 32 34 36 38 39 36 32 31 34 38 39 36 29 23 23 27 27 26 24 18 18 24 29 29 32 39 46 55 63 65 67 68 68 67 68 70 69 65 61 57 59 67 70 67 64 62 60 57 53 50 48 45 44 42 40 39 38 38 39 39 40 41 41 41 41 41 41 42 42 42 41 40 40 41 42 43 44 44 45 46 45 43 43 41
29 32 34 36 39 41 40 37 37 37 38 40 36 25 19 21 24 27 29 29 27 25 26 28 30 33 39 48 58 65 67 68 68 68 67 68 70 72 70 67 64 64 67 71 69 66 63 61 58 55 52 51 50 49 47 46 45 45 44 45 45 45 45 45 45 44 43 42 43 43 44 44 45 44 41 40 40 41 43 44 45 47 47 45 44 43
30 33 33 36 41 43 41 40 41 40 39 38 28 18 19 28 32 33 33 34 33 32 31 31 34 41 49 58 68 71 69 69 68 67 69 73 75 74 71 68 66 67 68 67 64 62 60 58 57 55 54 53 52 52 51 50 50 49 49 50 50 49 49 50 51 50 48 46 46 45 45 45 46 46 45 42 40 40 42 43 45 47 47 46 44 44
30 32 33 36 39 42 45 44 42 42 40 30 19 18 25 30 31 32 33 35 33 28 28 33 40 50 60 65 67 67 65 64 63 66 72 76 74 70 66 65 65 65 64 62 61 60 59 58 56 55 54 54 53 53 52 52 52 52 52 53 52 52 51 50 51 51 49 48 48 47 45 45 46 45 45 44 42 41 41 42 43 46 47 47 46 45
30 31 34 34 33 41 46 43 43 44 32 16 11 18 25 27 29 33 36 38 34 27 29 39 49 60 67 66 64 65 64 63 64 69 73 72 68 65 65 66 65 64 63 62 61 61 60 58 56 55 54 54 53 52 52 51 51 51 52 52 52 53 51 50 50 50 48 47 47 46 44 45 45 44 43 43 43 42 41 40 40 43 44 45 46 47
31 31 33 29 29 38 44 42 42 33 15 7 11 16 24 31 35 39 41 42 40 35 33 37 50 65 71 69 68 70 69 68 69 70 68 64 63 64 66 67 67 66 65 64 63 63 61 59 57 56 55 53 51 51 50 49 49 49 49 50 50 50 49 49 48 46 45 45 44 43 44 44 43 42 42 42 42 42 42 40 38 39 40 40 42 45
32 33 32 30 29 35 40 35 26 16 11 14 15 15 23 33 38 42 44 45 46 40 36 43 59 70 73 73 73 72 71 69 68 65 62 61 62 65 66 67 67 66 64 63 62 62 60 58 57 57 55 53 51 49 49 48 49 50 50 50 50 49 49 48 46 44 43 43 42 43 43 42 41 41 41 41 42 43 42 41 38 36 35 35 36 40
33 32 32 33 29 30 33 25 16 21 29 27 23 24 31 37 42 46 48 50 46 33 36 56 72 74 74 74 72 69 67 65 63 62 61 63 64 64 65 66 65 64 62 61 60 59 57 56 56 55 54 51 50 48 48 49 50 52 51 51 52 52 51 48 46 44 43 43 43 42 41 40 40 41 41 41 42 42 41 40 37 34 33 32 31 35
33 33 34 32 25 24 28 27 27 32 32 26 25 31 38 45 49 48 49 51 41 32 46 69 75 72 72 71 67 64 63 64 66 66 65 65 65 65 65 64 64 63 63 62 59 58 57 56 55 55 53 50 49 48 48 49 51 52 52 52 53 53 50 46 43 42 42 42 41 39 38 38 39 40 41 40 41 41 39 38 36 32 32 32 31 33
34 34 32 28 25 26 28 25 22 19 16 17 25 34 43 50 53 53 53 49 42 47 63 72 69 68 69 66 63 63 64 67 71 70 69 68 67 67 66 65 65 64 63 61 60 59 58 57 57 56 53 50 49 48 47 49 52 53 52 52 53 53 48 43 40 40 41 40 38 36 35 36 37 38 39 39 39 39 37 37 36 32 31 32 32 33
35 33 32 29 28 28 25 19 14 13 14 19 28 38 47 52 58 60 50 44 51 63 68 66 64 65 65 63 64 65 66 68 72 73 73 71 69 68 67 67 67 66 64 61 58 58 59 58 57 56 53 50 49 48 49 51 53 53 51 51 52 52 47 40 38 39 38 37 36 36 36 36 36 36 36 37 37 37 37 39 39 35 31 32 33 34
34 31 31 28 26 28 26 21 20 21 22 23 31 43 50 56 62 53 34 38 60 68 62 62 64 62 62 63 64 66 66 66 69 73 73 72 71 70 69 68 69 67 64 60 57 56 57 57 57 56 53 51 50 49 50 53 52 51 49 49 50 50 44 37 36 37 36 35 36 37 36 35 35 35 35 36 36 36 38 40 39 36 32 30 32 33
35 32 30 28 30 32 28 24 25 26 24 27 36 48 55 60 58 42 32 48 65 63 59 63 62 60 63 64 64 66 66 65 67 70 71 71 71 71 70 70 69 64 59 56 55 55 55 55 56 56 55 53 52 51 52 52 50 47 46 47 48 47 40 34 34 35 35 35 36 36 34 34 35 36 36 36 36 37 38 39 37 35 32 29 30 32
33 33 31 30 33 34 30 29 29 25 25 33 45 54 59 55 47 42 48 59 62 59 61 63 60 61 63 63 63 66 66 67 68 69 70 70 70 71 71 69 65 60 55 54 54 54 53 55 57 56 56 54 52 52 52 50 46 45 45 45 47 46 39 33 33 34 35 35 35 35 34 34 35 37 37 35 35 36 37 39 38 34 30 26 26 27
30 29 28 29 33 33 30 26 20 19 31 45 53 57 55 48 45 51 59 60 59 61 63 62 62 63 62 62 65 66 67 69 69 69 70 70 69 68 66 62 59 57 55 55 55 55 57 58 57 56 55 54 53 53 51 46 43 43 44 44 45 44 38 33 32 34 34 35 36 35 35 35 35 37 37 34 34 36 36 39 40 33 27 24 23 24
30 27 26 29 29 26 26 24 21 27 41 50 53 55 54 51 54 59 61 62 64 64 62 63 64 63 61 64 66 67 68 69 68 69 70 68 66 63 59 56 56 55 55 56 58 59 60 58 55 54 54 53 53 52 47 41 40 42 44 43 43 42 38 33 32 33 33 35 35 35 35 36 36 37 35 33 35 37 38 41 39 30 23 22 22 23
29 27 27 28 28 27 30 33 35 40 47 53 58 60 58 59 62 62 63 66 66 64 62 63 64 64 64 65 65 66 67 67 67 68 67 64 61 57 54 54 54 54 56 59 60 60 57 54 53 53 53 53 51 48 42 38 38 41 43 43 43 42 38 33 32 32 33 34 34 35 35 36 37 37 35 35 36 37 41 44 36 22 17 18 20 21
29 31 32 32 33 37 41 43 46 50 55 60 63 61 61 65 66 65 66 68 66 64 64 63 64 66 65 63 63 64 65 65 66 66 62 58 55 51 50 53 54 56 59 60 59 57 54 52 53 52 52 51 48 44 40 37 38 40 42 42 42 40 36 32 31 32 33 34 34 35 35 36 37 37 36 36 36 37 43 43 29 16 14 15 16 18
32 35 38 39 40 43 46 49 54 60 63 64 63 63 66 68 67 66 68 67 66 66 65 64 65 64 63 62 62 63 64 65 65 62 57 53 49 49 51 54 57 59 60 58 56 54 53 53 53 51 49 47 45 42 40 38 38 39 40 40 40 37 33 31 30 31 32 34 34 34 34 35 37 37 36 36 35 36 41 38 24 15 13 14 15 16
33 37 41 43 43 44 47 53 60 66 69 68 66 68 69 69 68 68 67 66 66 67 66 64 63 61 61 62 62 63 66 65 61 57 54 50 48 51 55 57 59 59 56 54 54 54 53 52 49 47 46 45 44 42 40 38 37 37 38 37 36 34 31 30 29 30 32 32 33 33 34 34 36 36 36 36 33 35 40 36 25 17 13 10 11 13
31 35 38 42 47 50 54 59 63 69 72 70 67 67 68 67 67 67 66 66 66 66 65 64 61 60 60 61 63 65 66 63 59 55 51 50 53 56 57 57 57 55 53 53 54 52 50 47 46 46 45 44 43 41 39 37 36 36 36 36 34 32 31 29 29 30 31 31 32 33 33 33 34 34 35 35 33 32 37 37 28 19 15 13 10 8
30 34 37 43 51 56 59 59 59 62 67 68 67 66 67 65 65 65 65 66 65 63 63 64 63 62 61 61 62 64 63 61 58 54 52 54 56 55 54 53 52 53 54 55 54 50 46 45 46 46 44 43 42 40 38 37 35 34 35 34 32 30 30 29 29 30 30 31 32 33 33 34 33 33 34 35 33 30 33 35 29 20 15 14 11 10
30 34 40 48 54 57 59 59 57 58 62 66 67 66 65 63 63 64 64 63 62 61 62 63 64 65 65 64 63 64 62 60 56 53 53 55 53 50 50 51 53 56 58 56 51 47 46 47 48 46 44 43 41 39 37 36 34 34 35 33 30 29 28 28 29 30 29 30 31 32 33 34 33 32 33 33 31 29 31 33 27 18 14 12 11 13
Wind_Direction
22 23 30 26 23 23 23 25 21 13 6 2 357 354 353 344 345 351 349 353 347 340 350 354 358 12 19 23 19 9 1 347 349 352 352 358 357 356 354 352 358 356 350 345 332 314 292 278 268 257 250 252 260 270 276 283 289 292 294 296 298 298 298 299 299 298 297 296 296 294 294 293 292 291 291 290 289 288 288 288 289 291 292 292 291 292
30 31 33 29 29 27 25 23 16 11 3 2 359 353 355 349 346 351 353 355 347 338 348 360 12 30 26 26 17 4 358 351 351 353 353 357 356 355 356 2 10 6 356 349 340 323 299 279 266 255 253 261 269 278 285 290 294 294 296 297 297 297 297 298 298 298 297 296 295 294 293 292 291 291 290 289 288 286 285 285 287 290 290 290 290 291
38 34 32 30 30 23 18 15 13 12 4 2 3 356 357 355 347 348 355 0 352 341 350 6 27 49 33 12 0 357 355 349 347 350 350 348 346 349 357 9 13 7 358 349 340 325 305 282 268 268 275 285 291 295 297 297 297 296 296 297 296 296 297 298 298 297 296 295 294 293 293 292 292 292 291 290 288 286 285 284 284 286 287 288 288 289
45 35 28 26 24 15 12 11 11 14 10 6 6 2 358 356 349 344 350 2 0 350 352 1 18 42 12 349 336 344 345 343 342 344 343 338 338 344 351 358 356 353 353 350 341 325 308 298 293 294 295 300 302 302 302 300 300 300 299 299 298 298 298 298 298 297 296 295 294 293 292 292 292 293 293 292 292 290 287 283 281 282 283 284 286 288
49 36 26 23 17 12 10 9 9 12 16 13 9 5 357 355 353 343 344 354 358 1 357 353 355 355 358 353 331 334 337 338 340 338 335 329 331 335 336 338 338 342 349 349 345 332 319 316 317 318 315 311 309 306 305 304 304 303 303 303 301 300 300 299 299 298 298 296 295 294 293 294 294 295 296 296 297 295 288 283 281 281 281 283 286 288
44 34 27 22 14 12 11 9 11 11 13 14 10 5 357 352 351 347 346 349 352 360 356 357 358 335 351 1 340 335 336 335 338 330 326 324 325 329 330 333 335 339 344 345 343 339 333 327 323 323 321 318 314 310 307 305 303 302 301 302 301 301 301 301 302 300 299 298 297 298 298 298 298 296 296 296 296 293 289 285 282 280 282 284 286 287
38 33 27 20 15 13 13 13 14 10 9 10 6 1 356 350 348 345 347 348 347 348 345 0 8 326 342 0 346 334 338 334 332 324 324 330 332 333 331 333 336 338 340 342 341 338 334 330 325 323 323 320 318 315 312 308 306 306 305 306 307 308 309 308 307 306 304 303 303 303 304 303 303 300 298 296 292 289 287 284 282 281 282 284 285 285
36 33 26 22 19 14 14 15 12 8 6 5 2 358 353 350 349 341 342 347 340 337 335 352 0 326 326 350 347 329 335 331 324 319 327 337 337 333 333 335 336 337 339 338 336 334 332 330 327 325 324 322 318 315 312 311 311 314 315 316 316 316 316 315 315 315 314 313 312 310 309 307 306 304 302 299 294 291 286 282 281 281 281 282 282 283
34 28 25 21 23 20 15 12 7 5 3 1 359 357 352 349 351 339 337 345 337 334 333 342 359 336 308 332 342 324 326 329 326 323 331 339 336 333 335 337 337 337 336 333 332 331 330 328 325 322 322 321 318 315 314 315 317 319 319 320 320 319 319 319 319 320 321 320 319 318 316 313 309 306 304 301 298 295 290 283 280 280 280 280 280 280
33 25 22 18 20 21 15 8 4 3 360 359 358 354 352 351 352 343 339 344 335 320 325 344 360 350 311 328 337 324 321 325 328 326 331 337 334 333 337 338 337 335 332 331 330 329 327 324 321 320 321 319 318 319 320 320 319 319 319 320 322 322 322 322 323 323 325 325 325 324 322 320 316 311 306 304 302 298 293 287 283 281 280 279 278 277
28 23 20 16 15 16 14 9 4 0 357 357 354 350 352 354 354 351 341 344 339 306 339 346 344 340 309 325 334 326 318 320 325 323 328 335 335 337 339 338 335 333 332 331 329 326 323 320 319 319 320 319 320 323 321 320 318 317 317 317 318 319 319 320 320 322 324 325 327 328 327 327 324 320 314 310 307 302 297 292 289 286 282 281 280 277
21 21 18 15 11 7 9 10 4 360 356 354 350 350 354 353 353 353 344 350 359 295 325 325 329 326 275 310 336 335 321 317 319 316 319 332 339 339 337 335 333 332 331 329 326 324 321 319 319 320 321 323 324 325 321 318 317 314 312 312 311 312 312 314 315 316 318 320 323 324 325 327 327 326 324 320 316 309 301 296 294 291 289 287 285 280
19 19 16 13 8 5 3 2 4 3 356 351 349 355 2 357 354 356 341 347 281 290 313 319 323 315 265 311 340 343 332 327 318 301 304 325 335 337 336 334 332 330 328 326 323 322 320 319 318 318 320 324 325 323 319 316 312 310 309 307 307 308 308 309 310 311 313 315 317 318 319 321 322 324 325 324 323 318 309 302 297 294 293 292 290 285
17 14 14 10 6 5 359 354 356 355 353 351 350 358 10 14 2 335 301 318 288 301 313 316 316 298 289 326 343 345 346 349 335 296 299 322 333 336 336 334 332 330 327 324 321 319 318 317 316 315 317 320 322 318 313 311 309 307 307 306 307 307 308 309 311 312 313 314 315 316 316 316 316 317 319 321 322 320 317 310 303 299 296 294 292 288
11 0 7 7 4 2 357 352 348 345 346 346 346 351 357 0 344 261 278 273 278 300 310 312 308 286 312 331 345 353 357 0 354 332 319 331 343 344 339 336 334 331 326 323 320 317 317 317 315 313 312 314 317 316 312 310 308 307 306 306 306 307 309 311 313 315 316 317 318 318 318 317 316 315 315 316 317 317 316 313 310 307 302 298 294 290
7 353 358 4 3 358 353 353 348 346 345 340 342 341 336 338 304 253 276 277 279 297 305 303 288 293 314 328 343 359 0 359 359 347 333 338 347 345 339 336 334 330 325 322 318 314 316 319 316 312 311 313 317 319 317 314 311 310 307 306 305 306 307 309 312 316 318 319 321 321 320 319 318 317 315 314 315 314 312 309 308 308 306 303 299 294
358 355 359 3 2 358 355 354 351 349 344 338 338 332 327 329 308 277 282 286 294 297 292 291 290 300 315 328 337 345 347 349 354 347 331 331 337 334 331 336 339 331 320 313 309 310 315 319 317 315 316 318 320 320 319 317 315 312 308 306 305 304 305 306 308 311 315 319 321 322 321 319 317 316 315 314 314 314 311 307 305 302 302 303 302 298
343 344 356 3 358 356 356 353 353 350 344 339 335 330 328 324 312 291 281 304 324 281 286 290 292 303 309 319 331 329 328 337 342 335 324 323 326 325 324 329 330 313 303 301 302 306 311 313 314 315 316 316 316 315 313 312 312 309 306 304 304 304 304 304 305 305 308 314 319 320 320 319 317 313 311 312 313 313 311 306 302 299 297 298 300 299
341 336 346 359 356 354 355 350 352 353 346 341 334 332 331 320 307 295 280 311 311 277 294 292 294 300 296 304 322 323 325 337 336 322 320 321 321 322 320 315 307 299 296 297 300 304 307 310 309 309 309 308 307 305 302 301 301 301 300 300 301 302 302 303 302 300 301 306 312 315 315 316 315 310 308 308 309 310 310 306 300 298 297 296 295 297
346 329 330 348 352 352 352 347 348 350 348 344 336 333 328 312 303 298 290 279 275 262 286 295 296 295 294 304 317 324 334 342 329 316 318 320 321 321 318 312 304 298 296 298 303 306 308 309 308 306 303 301 299 297 295 295 294 293 293 294 296 296 296 297 296 296 297 300 307 310 310 310 310 306 304 305 305 306 308 305 300 297 296 295 294 295
347 327 317 336 347 351 352 349 345 344 344 343 338 335 326 315 311 306 298 286 272 241 238 307 291 291 300 308 315 323 328 317 313 317 318 321 324 324 321 318 315 310 309 312 313 314 313 311 308 305 303 301 299 296 293 292 291 291 290 291 293 294 295 296 296 297 298 298 301 304 305 305 303 301 300 302 302 303 304 303 300 296 294 293 294 294
344 331 320 332 342 347 349 347 344 340 341 341 338 336 329 320 315 307 301 299 288 262 264 276 271 293 303 307 301 304 305 307 317 322 319 321 324 323 324 325 326 324 322 323 323 323 321 317 315 313 313 313 312 310 306 303 302 300 299 299 301 303 302 301 300 300 300 299 300 301 302 301 297 295 296 297 297 298 299 299 298 296 292 290 291 292
343 336 329 331 337 341 345 347 346 342 341 340 338 335 330 323 313 296 284 298 296 282 277 268 261 293 302 300 294 299 305 314 321 320 319 323 323 325 326 323 324 324 322 322 322 322 321 319 318 316 315 314 314 315 314 313 312 310 309 309 309 308 306 304 304 304 303 303 301 299 297 295 292 291 291 291 292 294 294 294 293 293 291 288 288 288
345 340 335 334 336 339 342 346 346 344 341 338 336 333 328 324 318 305 292 291 288 284 284 272 254 288 293 294 293 296 302 307 313 317 323 326 324 326 327 325 324 324 323 322 321 321 321 320 319 318 317 317 317 317 317 316 316 315 315 314 312 308 305 304 303 304 303 303 301 298 294 290 287 286 286 286 288 289 289 288 288 287 286 285 285 285
345 341 336 336 338 339 341 344 344 341 339 335 334 333 327 325 325 317 308 297 280 282 288 273 249 280 289 294 295 297 301 304 309 316 320 324 326 327 327 326 327 326 326 326 326 326 326 325 325 324 324 325 324 323 321 319 318 317 317 316 312 309 306 303 301 299 298 297 297 296 294 290 287 284 283 283 284 284 284 283 282 280 280 280 281 282
343 339 337 335 328 327 325 328 332 331 330 333 335 334 330 327 326 322 313 298 276 290 294 277 270 287 295 296 297 302 310 314 318 320 320 323 325 326 327 328 330 330 330 330 329 330 329 329 329 329 329 328 327 326 324 322 321 319 318 315 311 309 307 304 301 298 296 293 291 291 290 289 287 285 283 282 282 283 281 278 275 273 273 274 277 279
343 339 340 334 320 316 314 321 328 326 322 325 330 333 333 329 327 326 316 298 291 299 294 284 289 304 310 309 312 321 328 329 330 328 327 327 326 327 330 332 333 333 331 329 328 328 328 328 329 329 329 328 326 324 323 322 321 320 318 316 314 313 312 311 310 307 303 298 294 289 286 284 282 282 282 282 282 282 280 278 275 272 271 272 274 276
341 339 341 335 327 328 326 328 334 330 321 322 326 329 329 326 327 326 315 308 312 308 293 295 308 317 321 323 328 334 335 335 333 331 332 332 332 333 334 334 334 332 328 325 325 326 327 327 327 328 328 327 325 322 321 320 320 319 317 315 315 314 314 315 316 315 314 310 306 301 296 291 286 282 280 279 280 280 280 280 279 276 275 278 280 280
341 340 340 334 330 333 334 334 336 332 326 327 326 322 320 322 328 325 314 314 322 314 298 307 318 324 327 330 332 334 336 337 335 334 335 335 334 334 334 333 332 329 324 322 324 325 326 327 326 326 325 324 323 321 318 318 317 315 311 308 308 308 309 310 310 311 311 311 310 308 306 304 300 294 287 281 279 278 278 278 278 277 277 280 284 285
342 339 340 335 330 333 339 339 336 331 329 328 323 314 315 323 323 319 316 317 320 319 314 316 324 330 333 335 335 334 336 338 337 336 335 333 333 333 332 332 329 326 323 323 324 325 326 327 326 325 324 323 322 321 319 317 316 314 311 308 306 304 304 305 306 307 308 308 308 308 307 308 307 305 300 293 286 282 279 278 277 277 278 278 279 282
341 338 340 336 328 332 343 341 334 332 331 324 310 292 305 317 318 319 322 323 324 324 320 318 324 330 331 333 335 335 337 338 337 334 332 331 332 332 331 329 327 325 324 324 325 326 326 327 326 324 323 322 321 320 319 317 316 315 314 312 311 307 304 303 304 304 305 307 308 308 307 307 307 307 307 304 299 293 289 285 282 279 280 279 277 277
341 338 340 338 326 329 342 341 334 334 330 316 295 296 315 323 327 332 335 336 330 321 321 329 333 335 335 336 336 335 336 335 332 330 330 330 330 330 329 328 327 326 326 326 327 327 327 327 326 325 324 321 320 319 318 318 317 315 314 313 312 311 307 305 306 306 305 305 308 308 307 306 306 305 307 308 307 304 300 296 290 285 282 282 280 277
344 339 339 338 323 325 338 340 333 333 332 317 307 323 331 334 335 335 337 339 333 320 325 338 338 335 336 336 334 333 333 333 331 329 328 329 329 329 328 327 327 326 327 328 328 328 327 326 325 325 324 323 322 321 320 320 319 318 316 314 312 311 309 308 309 309 307 306 307 308 307 306 305 305 306 307 307 307 305 302 296 290 286 286 285 282
345 340 338 335 318 321 334 337 332 333 333 305 306 326 342 346 345 340 335 338 339 326 315 322 327 330 332 333 333 332 332 330 327 325 325 327 328 328 327 327 327 327 328 328 327 326 325 325 325 324 324 323 323 322 323 323 323 321 320 317 315 312 310 309 309 309 308 307 308 307 306 306 305 304 306 308 307 306 305 303 299 293 289 288 288 289
344 341 337 331 319 320 329 333 334 334 323 306 297 306 325 329 333 332 328 334 338 325 310 318 325 327 329 330 330 329 327 325 323 322 325 328 329 328 327 327 327 328 328 327 325 324 324 325 325 324 324 324 323 325 326 326 326 324 321 320 318 315 313 311 310 309 309 309 308 307 306 306 306 305 307 308 306 305 305 304 300 294 290 288 288 291
345 343 338 332 325 322 326 327 325 318 312 302 289 298 313 320 330 333 330 333 336 320 313 325 326 325 326 327 327 327 326 323 321 322 326 329 328 328 327 326 327 328 327 325 324 324 325 325 325 325 324 324 324 326 328 328 326 324 322 321 320 320 317 313 309 308 309 309 309 308 309 308 307 308 309 308 307 305 305 304 301 294 289 286 283 287
347 343 337 333 327 321 316 310 309 312 310 305 308 326 338 341 343 342 333 331 331 317 318 326 326 325 327 327 327 327 325 323 321 323 327 328 327 326 326 326 327 327 325 325 324 324 325 325 325 325 323 323 324 325 327 327 325 324 322 321 321 322 320 315 311 310 310 311 312 313 311 310 310 311 311 310 308 306 304 304 303 297 288 282 278 281
346 343 339 330 320 319 314 308 312 314 310 319 328 338 344 341 338 336 329 324 321 320 324 328 328 327 328 327 327 327 325 324 322 323 326 326 324 324 324 324 326 325 324 325 325 325 325 324 324 325 324 323 323 324 326 326 324 322 321 320 322 323 321 317 315 314 312 313 314 314 312 313 313 314 313 311 309 307 305 305 305 300 289 280 277 278
345 342 338 329 321 323 320 309 310 307 302 320 330 334 337 334 331 331 327 319 322 327 329 329 328 327 327 326 325 325 325 325 322 321 323 324 323 323 323 324 325 324 323 325 326 325 324 323 324 325 324 323 323 324 326 326 324 322 320 320 323 323 321 318 316 315 314 313 313 315 317 318 317 315 315 313 310 309 309 309 308 304 292 279 274 276
343 339 338 332 326 330 326 311 308 307 305 315 325 328 331 330 331 333 327 319 327 330 329 327 326 325 325 325 324 324 324 322 319 319 321 321 321 322 323 323 323 322 323 325 326 323 322 322 323 324 324 324 323 324 326 326 324 322 322 322 324 324 321 317 315 316 315 314 315 318 321 321 318 318 318 316 313 311 312 313 311 307 297 281 270 270
341 338 336 332 327 331 329 317 314 311 304 309 317 323 329 333 335 336 325 321 326 327 325 325 325 324 325 324 323 322 321 319 318 319 320 321 321 321 321 320 320 322 325 326 324 321 320 320 322 322 322 322 322 323 325 325 324 323 323 323 325 326 321 314 313 315 314 315 318 320 321 320 321 323 322 319 316 315 315 318 316 307 299 286 269 266
337 334 332 330 329 331 328 322 319 313 308 316 321 326 333 337 335 328 322 322 324 324 324 326 326 326 326 325 323 322 320 319 320 319 319 320 320 319 320 322 324 326 327 325 322 320 319 318 319 320 320 321 322 323 325 325 324 325 326 325 326 327 321 312 311 313 313 317 321 322 322 322 323 325 325 321 320 319 317 321 319 306 294 287 275 267
332 332 332 333 333 330 326 326 324 314 316 323 327 330 335 336 328 324 324 324 324 326 327 328 328 328 327 325 323 322 320 320 320 319 319 319 320 322 325 327 329 328 325 322 320 320 319 319 319 319 320 321 322 324 325 325 324 325 326 325 327 327 321 312 310 312 314 318 322 323 323 324 326 328 327 323 323 321 316 319 321 308 289 283 280 273
334 336 336 336 334 329 324 322 320 317 320 325 329 332 333 331 327 327 326 326 328 330 331 329 328 328 327 324 323 321 320 320 320 320 321 322 324 328 329 329 327 324 320 319 319 320 321 321 320 321 322 323 324 325 326 326 325 325 325 326 327 327 321 313 310 312 315 319 322 323 323 326 329 330 328 326 325 323 320 321 322 309 287 279 279 276
334 331 331 330 327 322 320 320 322 323 325 328 331 331 330 329 330 331 330 330 330 331 331 329 328 327 326 325 324 323 323 323 324 324 326 326 328 329 327 322 320 318 317 318 319 321 323 322 322 322 323 324 326 327 327 327 326 326 326 327 328 325 320 313 309 312 316 319 322 325 325 327 330 331 331 330 328 326 328 329 323 306 285 279 274 270
325 325 328 327 322 321 323 325 327 328 328 330 331 331 330 331 334 334 332 330 330 331 331 329 328 327 327 326 327 327 327 327 328 328 327 326 325 324 320 316 315 315 317 318 320 323 324 323 324 324 324 325 326 327 327 327 327 327 328 329 329 325 319 313 310 312 316 319 323 327 327 329 332 334 335 333 329 328 333 334 324 300 284 278 267 261
325 327 327 325 323 327 330 330 330 329 329 331 332 332 333 334 335 334 332 331 331 331 330 329 328 329 329 329 331 331 330 330 329 328 326 324 321 318 315 314 315 317 318 319 321 323 323 323 324 325 324 326 327 327 326 327 328 329 328 329 330 326 319 314 312 313 316 319 325 329 330 331 335 336 336 334 331 336 343 342 331 310 293 276 264 264
329 329 327 324 326 329 331 331 331 328 327 330 332 334 335 335 334 333 332 331 332 331 330 330 331 331 331 332 333 333 331 330 329 327 323 321 318 316 315 316 317 319 320 322 323 323 323 324 326 326 325 326 328 327 325 326 328 328 328 330 332 328 322 318 316 316 318 322 327 330 330 332 336 337 337 334 333 344 353 352 343 335 329 309 289 279
325 326 327 327 327 329 331 333 332 328 327 331 335 336 335 335 334 333 333 333 333 332 332 332 332 333 333 333 333 333 332 330 328 325 321 318 318 317 317 319 320 321 323 324 325 325 325 326 327 326 325 326 327 326 324 325 328 329 329 331 332 330 324 321 319 320 322 324 329 331 330 333 336 337 338 337 336 345 356 357 350 346 349 346 334 322
328 332 336 334 332 332 333 335 335 331 330 334 337 337 336 336 334 333 334 334 334 334 334 333 333 333 333 333 334 334 332 329 327 324 320 319 319 320 321 322 324 325 325 326 326 326 326 327 327 325 324 325 326 324 323 324 328 329 328 330 332 332 328 324 322 323 324 326 330 332 331 333 336 338 339 339 338 344 356 358 352 347 351 353 350 353
335 339 340 339 336 333 333 334 336 334 333 334 336 336 336 336 335 334 335 335 335 335 335 334 333 333 332 334 336 335 332 328 326 324 321 321 322 323 324 325 325 325 325 326 326 326 326 326 325 323 322 323 324 322 321 323 327 328 327 328 331 332 331 328 325 325 326 328 331 333 332 332 336 338 340 341 340 344 354 358 353 346 347 350 350 350